Flag for Germany Weather past 2 weeks in Ingelheim am Rhein, Rhineland-Palatinate, Germany

Now
37 °F

Clear.


Feels Like: 34 °F
Forecast: 34 / 50 °F
Wind: 5 mph from South

Location: Wiesbaden Airport

Current Time: Feb 28, 2015 at 8:51:06 PM

Latest Report: Feb 28, 2015 at 7:58 PM


Visibility: N/A

Pressure: 30.05 "Hg

Humidity: 75%

Dew point: 30 °F

Location of Ingelheim am RheinLocation

Historic Weather in Ingelheim am Rhein — Graph

°F

Ingelheim am Rhein temperature yesterday

Maximum temperature yesterday: 43 °F (at 1:58 PM)
Minimum temperature yesterday: 39 °F (at 7:58 AM)
Average temperature yesterday: 40 °F

Past Weeks' High & Low Weather Summary

 TemperatureHumidityPressure
High52 °F (Feb 20, 1:58 PM)100% (Feb 22, 5:58 AM)30.78 "Hg (Feb 22, 5:58 AM)
Low27 °F (Feb 15, 7:58 AM)50% (Feb 20, 5:58 PM)29.47 "Hg (Feb 21, 6:58 AM)
Average38 °F83%30.04 "Hg
* Reported Feb 13 7:58 PM — Feb 28 7:58 PM, Ingelheim am Rhein, Weather by CustomWeather, © 2015

Note: Actual official high and low records may vary slightly from our data, if they occured in-between our weather recording intervals... More about our weather records

Advertising

Ingelheim am Rhein weather history for previous 24 hours

 ConditionsComfort  
Time TempWeatherWind HumidityBarometerVisibility
7:58 PM
Sat, Feb 28
37 °FClear.5 mph75%30.05 "HgN/A
6:58 PM39 °FClear.3 mph69%30.06 "HgN/A
5:58 PM43 °FSunny.6 mph57%30.06 "HgN/A
4:58 PM45 °FSunny.9 mph50%30.07 "HgN/A
3:58 PM46 °FScattered clouds.7 mph52%30.10 "HgN/A
2:58 PM46 °FSunny.9 mph50%30.11 "HgN/A
1:58 PM44 °FPartly sunny.6 mph58%30.13 "HgN/A
1:00 PM45 °FScattered clouds.10 mph61%30.13 "HgN/A
12:58 PM44 °FPartly sunny.9 mph61%30.15 "HgN/A
11:58 AM43 °FSunny.7 mph71%30.18 "HgN/A
10:58 AM39 °FSunny.2 mph81%30.20 "HgN/A
9:58 AM37 °FSunny.2 mph87%30.20 "HgN/A
8:58 AM34 °FSunny.2 mph93%30.22 "HgN/A
7:58 AM31 °FSunny.2 mph97%30.21 "HgN/A
6:58 AM29 °FClear.3 mph96%30.20 "HgN/A
5:58 AM31 °FClear.3 mph95%30.19 "HgN/A
4:58 AM31 °FClear.3 mph94%30.19 "HgN/A
3:58 AM33 °FClear.2 mph91%30.19 "HgN/A
2:58 AM36 °FClear.2 mph81%30.19 "HgN/A
1:58 AM37 °FPassing clouds.2 mph81%30.17 "HgN/A
12:58 AM39 °FOvercast.6 mph75%30.18 "HgN/A
11:58 PM
Fri, Feb 27
40 °FOvercast.6 mph74%30.17 "HgN/A
10:58 PM40 °FOvercast.5 mph71%30.16 "HgN/A
9:58 PM41 °FOvercast.8 mph74%30.14 "HgN/A
8:58 PM41 °FOvercast.8 mph76%30.12 "HgN/A
Weather by CustomWeather, © 2015

See weather overviewHow to use our weather pages